SR5MRF Weather Reports


time (UTC)temp
C
wind
direction
speed
KPH
gust
KPH
rain 1hr
cm
rain 24hr
cm
rain mn
cm
humidity
%
barometer
mb
20260506201438 19 315 0.0 0.0 0.00 0.00 0.00 56 1003.7
20260506200738 19 315 0.0 0.0 0.00 0.00 0.00 56 1003.6
20260506200038 19 315 0.0 0.0 0.00 0.00 0.00 56 1003.8
20260506195839 19 315 0.0 0.0 0.00 0.00 0.00 56 1003.9
20260506195338 19 315 0.0 0.0 0.00 0.00 0.00 55 1003.7
20260506194839 20 315 0.0 0.0 0.00 0.00 0.00 54 1003.7
20260506194638 20 315 0.0 0.0 0.00 0.00 0.00 54 1003.6
20260506193938 20 315 0.0 0.0 0.00 0.00 0.00 54 1003.7
20260506193839 20 315 0.0 0.0 0.00 0.00 0.00 54 1003.7
20260506193238 20 315 0.0 0.0 0.00 0.00 0.00 53 1003.5
20260506192538 20 315 0.0 0.0 0.00 0.00 0.00 53 1003.6
20260506191838 20 315 0.0 0.0 0.00 0.00 0.00 53 1003.6
20260506191138 20 315 0.0 0.0 0.00 0.00 0.00 53 1003.6
20260506190839 20 315 0.0 0.0 0.00 0.00 0.00 52 1003.6
20260506190438 21 315 0.0 0.0 0.00 0.00 0.00 52 1003.5
20260506185738 21 315 0.0 0.0 0.00 0.00 0.00 51 1003.3
20260506185038 21 315 0.0 0.0 0.00 0.00 0.00 50 1003.2
20260506184839 21 315 0.0 0.0 0.00 0.00 0.00 50 1003.2
20260506184338 21 315 0.0 0.0 0.00 0.00 0.00 50 1003.2
20260506183839 21 315 0.0 0.0 0.00 0.00 0.00 50 1003.2
20260506183638 21 315 0.0 0.0 0.00 0.00 0.00 50 1003.2
20260506182938 21 337 0.0 0.0 0.00 0.00 0.00 49 1003.1
20260506182238 22 337 0.0 0.0 0.00 0.00 0.00 49 1003.1
20260506181538 22 315 0.0 0.0 0.00 0.00 0.00 48 1003.1
20260506180838 22 337 0.0 0.0 0.00 0.00 0.00 48 1003.0
20260506180138 22 337 0.0 0.0 0.00 0.00 0.00 47 1003.1
20260506175839 22 337 0.0 0.0 0.00 0.00 0.00 47 1003.0
20260506175438 22 337 0.0 0.0 0.00 0.00 0.00 47 1002.9
20260506174839 22 337 0.0 0.0 0.00 0.00 0.00 47 1002.9
20260506174738 22 337 0.0 0.0 0.00 0.00 0.00 47 1002.8
20260506174038 22 337 0.0 0.0 0.00 0.00 0.00 47 1002.9
20260506173839 22 337 0.0 0.0 0.00 0.00 0.00 47 1002.9
20260506173338 22 337 0.0 0.0 0.00 0.00 0.00 46 1002.9
20260506172839 22 337 0.0 0.0 0.00 0.00 0.00 46 1002.7
20260506172638 22 337 0.0 0.0 0.00 0.00 0.00 46 1002.7
20260506171938 23 337 0.0 0.0 0.00 0.00 0.00 46 1002.8
20260506171839 23 315 0.0 0.0 0.00 0.00 0.00 46 1002.9
20260506171238 23 315 0.0 0.0 0.00 0.00 0.00 45 1002.8
20260506170839 23 337 0.0 0.0 0.00 0.00 0.00 45 1002.7
20260506170538 23 337 0.0 0.0 0.00 0.00 0.00 45 1002.7
20260506165838 23 337 0.0 0.0 0.00 0.00 0.00 45 1002.6
20260506165138 23 337 0.0 0.0 0.00 0.00 0.00 44 1002.7
20260506164839 23 337 0.0 0.0 0.00 0.00 0.00 44 1002.6
20260506164438 23 337 0.0 0.0 0.00 0.00 0.00 44 1002.6
20260506163839 23 337 0.0 0.0 0.00 0.00 0.00 44 1002.6
20260506163738 23 337 0.0 0.0 0.00 0.00 0.00 44 1002.6
20260506163038 23 337 0.0 0.0 0.00 0.00 0.00 44 1002.5
20260506162338 23 337 0.0 0.0 0.00 0.00 0.00 43 1002.6
20260506161839 24 202 0.0 0.0 0.00 0.00 0.00 43 1002.4
20260506161638 24 270 0.0 0.0 0.00 0.00 0.00 43 1002.4
20260506160938 24 315 0.0 0.0 0.00 0.00 0.00 43 1002.5
20260506160238 24 337 0.0 0.0 0.00 0.00 0.00 43 1002.3
20260506155839 24 337 0.0 0.0 0.00 0.00 0.00 44 1002.4
20260506155538 24 337 0.0 0.0 0.00 0.00 0.00 44 1002.3
20260506154838 24 337 0.0 0.0 0.00 0.00 0.00 44 1002.5
20260506154139 24 0 0.0 0.0 0.00 0.00 0.00 44 1002.6
20260506153439 24 337 0.0 0.0 0.00 0.00 0.00 44 1002.6
20260506152839 24 337 0.0 0.0 0.00 0.00 0.00 44 1002.7
20260506152739 24 337 0.0 0.0 0.00 0.00 0.00 44 1002.7
20260506152039 24 337 0.0 0.0 0.00 0.00 0.00 43 1002.6
20260506151339 24 202 0.0 0.0 0.00 0.00 0.00 43 1002.5
20260506150840 24 135 0.0 0.0 0.00 0.00 0.00 42 1002.7
20260506150639 24 135 0.0 0.0 0.00 0.00 0.00 42 1002.7
20260506145939 24 180 0.0 0.0 0.00 0.00 0.00 42 1002.8
20260506145839 24 180 0.0 0.0 0.00 0.00 0.00 42 1002.8
20260506145239 25 247 0.0 0.0 0.00 0.00 0.00 42 1002.9
20260506144839 25 247 0.0 0.0 0.00 0.00 0.00 42 1002.7
20260506144539 25 247 0.0 0.0 0.00 0.00 0.00 42 1002.7
20260506143839 25 180 0.0 0.0 0.00 0.00 0.00 42 1002.6
20260506143139 25 157 0.0 0.0 0.00 0.00 0.00 42 1002.5
20260506142839 24 180 0.0 0.0 0.00 0.00 0.00 42 1002.7
20260506142439 24 180 0.0 0.0 0.00 0.00 0.00 42 1002.7
20260506141839 24 180 0.0 0.0 0.00 0.00 0.00 42 1002.7
20260506141739 24 180 0.0 0.0 0.00 0.00 0.00 42 1002.7
20260506141039 24 180 0.0 0.0 0.00 0.00 0.00 42 1002.7
20260506140840 24 180 0.0 0.0 0.00 0.00 0.00 42 1002.7
20260506140339 25 202 0.0 0.0 0.00 0.00 0.00 42 1002.7
20260506135840 25 157 0.0 0.0 0.00 0.00 0.00 42 1002.7
20260506135639 25 337 0.0 0.0 0.00 0.00 0.00 42 1002.8
20260506134939 25 337 0.0 0.0 0.00 0.00 0.00 41 1002.7
20260506134840 25 337 0.0 0.0 0.00 0.00 0.00 41 1002.7
20260506134239 25 135 0.0 0.0 0.00 0.00 0.00 42 1002.5
20260506133539 25 157 0.0 0.0 0.00 0.00 0.00 42 1002.5
20260506132839 25 157 0.0 0.0 0.00 0.00 0.00 42 1002.6
20260506132139 25 315 0.0 0.0 0.00 0.00 0.00 42 1002.5
20260506131840 25 315 0.0 0.0 0.00 0.00 0.00 42 1002.5
20260506131439 25 90 0.0 0.0 0.00 0.00 0.00 42 1002.6
20260506130739 25 22 0.0 0.0 0.00 0.00 0.00 42 1002.6
20260506130039 25 180 0.0 0.0 0.00 0.00 0.00 42 1002.5
20260506125840 25 180 0.0 0.0 0.00 0.00 0.00 42 1002.7
20260506125339 25 337 0.0 0.0 0.00 0.00 0.00 43 1002.6
20260506124639 24 247 0.0 0.0 0.00 0.00 0.00 43 1002.6
20260506123939 24 337 0.0 0.0 0.00 0.00 0.00 43 1002.8
20260506123840 24 337 0.0 0.0 0.00 0.00 0.00 43 1002.7
20260506123239 24 157 0.0 0.0 0.00 0.00 0.00 43 1002.7
20260506122840 24 180 0.0 0.0 0.00 0.00 0.00 42 1002.7
20260506122539 25 90 0.0 0.0 0.00 0.00 0.00 42 1002.7
20260506121839 25 180 0.0 0.0 0.00 0.00 0.00 41 1002.8
20260506121139 25 180 0.0 0.0 0.00 0.00 0.00 41 1002.7
20260506120840 25 0 0.0 0.0 0.00 0.00 0.00 41 1002.6
20260506120439 25 180 0.0 0.0 0.00 0.00 0.00 41 1002.6
20260506115840 25 22 0.0 0.0 0.00 0.00 0.00 41 1002.6
20260506115739 25 292 0.0 0.0 0.00 0.00 0.00 40 1002.7
20260506115039 25 180 0.0 0.0 0.00 0.00 0.00 40 1002.6
20260506114840 25 180 0.0 0.0 0.00 0.00 0.00 40 1002.6
20260506114339 25 180 0.0 0.0 0.00 0.00 0.00 40 1002.7
20260506113639 26 157 0.0 0.0 0.00 0.00 0.00 39 1002.7
20260506112939 26 180 0.0 0.0 0.00 0.00 0.00 38 1002.7
20260506112840 26 180 0.0 0.0 0.00 0.00 0.00 38 1002.7
20260506112239 26 202 0.0 0.0 0.00 0.00 0.00 38 1002.7
20260506111840 27 157 0.0 0.0 0.00 0.00 0.00 38 1002.7
20260506111539 27 180 0.0 0.0 0.00 0.00 0.00 38 1002.7
20260506110839 27 0 0.0 0.0 0.00 0.00 0.00 38 1002.5
20260506110139 27 0 0.0 0.0 0.00 0.00 0.00 38 1002.5
20260506105840 27 180 0.0 0.0 0.00 0.00 0.00 38 1002.5
20260506105439 27 270 0.0 0.0 0.00 0.00 0.00 37 1002.4
20260506104840 27 202 0.0 0.0 0.00 0.00 0.00 37 1002.6
20260506104739 27 180 0.0 0.0 0.00 0.00 0.00 37 1002.5
20260506104039 27 225 0.0 0.0 0.00 0.00 0.00 37 1002.7
20260506103840 27 225 0.0 0.0 0.00 0.00 0.00 37 1002.7
20260506103339 27 157 0.0 0.0 0.00 0.00 0.00 37 1002.8
20260506102840 27 180 0.0 0.0 0.00 0.00 0.00 37 1002.6
20260506102639 27 202 0.0 0.0 0.00 0.00 0.00 37 1002.7
20260506101939 27 180 0.0 0.0 0.00 0.00 0.00 37 1002.7
20260506101239 27 180 0.0 0.0 0.00 0.00 0.00 37 1002.7
20260506100539 27 135 0.0 0.0 0.00 0.00 0.00 36 1002.8
20260506095839 27 180 0.0 0.0 0.00 0.00 0.00 36 1002.7
20260506095139 27 270 0.0 0.0 0.00 0.00 0.00 36 1002.7
20260506094840 27 157 0.0 0.0 0.00 0.00 0.00 36 1002.7
20260506094439 26 315 0.0 0.0 0.00 0.00 0.00 37 1002.7
20260506093840 26 157 0.0 0.0 0.00 0.00 0.00 37 1002.8
20260506093739 26 157 0.0 0.0 0.00 0.00 0.00 37 1002.8
20260506093039 25 0 0.0 0.0 0.00 0.00 0.00 37 1002.6
20260506092840 25 180 0.0 0.0 0.00 0.00 0.00 37 1002.7
20260506092339 26 157 0.0 0.0 0.00 0.00 0.00 37 1002.7
20260506091840 26 0 0.0 0.0 0.00 0.00 0.00 37 1002.7
20260506091639 25 180 0.0 0.0 0.00 0.00 0.00 37 1002.6
20260506090939 25 202 0.0 0.0 0.00 0.00 0.00 36 1002.6
20260506090840 26 225 0.0 0.0 0.00 0.00 0.00 35 1002.7
20260506090239 26 337 0.0 0.0 0.00 0.00 0.00 35 1002.6
20260506085840 27 225 0.0 0.0 0.00 0.00 0.00 34 1002.6
20260506085539 27 202 0.0 0.0 0.00 0.00 0.00 34 1002.6
20260506084839 28 225 0.0 0.0 0.00 0.00 0.00 34 1002.6
20260506084139 28 180 0.0 0.0 0.00 0.00 0.00 33 1002.6
20260506083840 28 180 0.0 0.0 0.00 0.00 0.00 34 1002.5
20260506083439 28 180 0.0 0.0 0.00 0.00 0.00 34 1002.3
20260506082840 28 202 0.0 0.0 0.00 0.00 0.00 34 1002.3
20260506082739 28 0 0.0 0.0 0.00 0.00 0.00 34 1002.3
20260506082039 28 202 0.0 0.0 0.00 0.00 0.00 34 1002.3
20260506081840 28 202 0.0 0.0 0.00 0.00 0.00 34 1002.3
20260506081339 28 180 0.0 0.0 0.00 0.00 0.00 34 1002.3
20260506080639 28 202 0.0 0.0 0.00 0.00 0.00 35 1002.3
20260506073139 26 225 0.0 0.0 0.00 0.00 0.00 39 1002.7
20260506072840 26 337 0.0 0.0 0.00 0.00 0.00 40 1002.7
20260506072439 26 157 0.0 0.0 0.00 0.00 0.00 40 1002.8
20260506071840 25 90 0.0 0.0 0.00 0.00 0.00 41 1003.0
20260506071739 25 90 0.0 0.0 0.00 0.00 0.00 42 1002.9
20260506071039 25 337 0.0 0.0 0.00 0.00 0.00 43 1002.8
20260506070840 24 337 0.0 0.0 0.00 0.00 0.00 43 1003.0
20260506070339 24 157 0.0 0.0 0.00 0.00 0.00 44 1003.1
20260506062139 22 225 0.0 0.0 0.00 0.00 0.00 52 1003.2
20260506061840 22 225 0.0 0.0 0.00 0.00 0.00 52 1003.1
20260506061439 21 225 0.0 0.0 0.00 0.00 0.00 53 1003.3
20260506060840 20 202 0.0 0.0 0.00 0.00 0.00 56 1003.4
20260506060739 20 202 0.0 0.0 0.00 0.00 0.00 56 1003.4
20260506051139 13 180 0.0 0.0 0.00 0.00 0.00 76 1003.5
20260506050840 13 180 0.0 0.0 0.00 0.00 0.00 77 1003.5
20260506050439 13 180 0.0 0.0 0.00 0.00 0.00 77 1003.5
20260506045039 12 157 0.0 0.0 0.00 0.00 0.00 78 1003.6
20260506044840 12 157 0.0 0.0 0.00 0.00 0.00 79 1003.6
20260506044339 12 202 0.0 0.0 0.00 0.00 0.00 78 1003.3
20260506043840 12 337 0.0 0.0 0.00 0.00 0.00 78 1003.1
20260506043639 12 337 0.0 0.0 0.00 0.00 0.00 78 1003.1
20260506042939 12 292 0.0 0.0 0.00 0.00 0.00 78 1003.2
20260506042239 12 180 0.0 0.0 0.00 0.00 0.00 78 1003.6
20260506041842 12 202 0.0 0.0 0.00 0.00 0.00 78 1003.6
20260506041539 12 337 0.0 0.0 0.00 0.00 0.00 77 1003.3
20260506040839 12 202 0.0 0.0 0.00 0.00 0.00 77 1003.4
20260506040139 12 202 0.0 0.0 0.00 0.00 0.00 77 1003.6
20260506035840 12 337 0.0 0.0 0.00 0.00 0.00 77 1003.7
20260506035439 12 180 0.0 0.0 0.00 0.00 0.00 77 1003.7
20260506034840 12 135 0.0 0.0 0.00 0.00 0.00 76 1003.7
20260506034739 12 22 0.0 0.0 0.00 0.00 0.00 76 1003.7
20260506034039 12 157 0.0 0.0 0.00 0.00 0.00 76 1003.7
20260506033840 12 157 0.0 0.0 0.00 0.00 0.00 76 1003.8
20260506033339 12 157 0.0 0.0 0.00 0.00 0.00 75 1003.4
20260506032840 12 135 0.0 0.0 0.00 0.00 0.00 75 1003.6
20260506032639 12 135 0.0 0.0 0.00 0.00 0.00 75 1003.5
20260506031939 12 337 0.0 0.0 0.00 0.00 0.00 75 1003.6
20260506031840 12 337 0.0 0.0 0.00 0.00 0.00 75 1003.5
20260506031239 12 180 0.0 0.0 0.00 0.00 0.00 75 1003.7
20260506030840 12 337 0.0 0.0 0.00 0.00 0.00 75 1003.8
20260506030539 12 0 0.0 0.0 0.00 0.00 0.00 74 1003.9
20260506025839 12 180 0.0 0.0 0.00 0.00 0.00 74 1003.7
20260506025139 12 157 0.0 0.0 0.00 0.00 0.00 73 1003.7
20260506024840 12 157 0.0 0.0 0.00 0.00 0.00 73 1003.7
20260506024440 12 180 0.0 0.0 0.00 0.00 0.00 73 1003.7
20260506023740 12 337 0.0 0.0 0.00 0.00 0.00 73 1003.7
20260506023039 13 315 0.0 0.0 0.00 0.00 0.00 72 1003.8
20260506022340 13 180 0.0 0.0 0.00 0.00 0.00 72 1003.8
20260506021840 13 337 0.0 0.0 0.00 0.00 0.00 71 1003.9
20260506021640 13 157 0.0 0.0 0.00 0.00 0.00 71 1004.0
20260506020940 13 112 0.0 0.0 0.00 0.00 0.00 71 1004.0
20260506020841 13 45 0.0 0.0 0.00 0.00 0.00 70 1003.9
20260506020240 13 157 0.0 0.0 0.00 0.00 0.00 71 1004.1
20260506015840 13 67 0.0 0.0 0.00 0.00 0.00 71 1004.2
20260506015540 13 337 0.0 0.0 0.00 0.00 0.00 70 1004.2
20260506014840 13 337 0.0 0.0 0.00 0.00 0.00 70 1004.1
20260506014140 13 337 0.0 0.0 0.00 0.00 0.00 69 1004.0
20260506013840 13 337 0.0 0.0 0.00 0.00 0.00 69 1004.2
20260506013440 14 337 0.0 0.0 0.00 0.00 0.00 70 1004.2
20260506012842 14 337 0.0 0.0 0.00 0.00 0.00 70 1004.1
20260506012740 14 337 0.0 0.0 0.00 0.00 0.00 70 1004.1
20260506012040 14 337 0.0 0.0 0.00 0.00 0.00 71 1004.1
20260506011841 14 337 0.0 0.0 0.00 0.00 0.00 71 1004.1
20260506011340 14 337 0.0 0.0 0.00 0.00 0.00 71 1004.0
20260506010841 14 337 0.0 0.0 0.00 0.00 0.00 71 1004.0
20260506010640 14 337 0.0 0.0 0.00 0.00 0.00 71 1003.9
20260506005940 15 315 0.0 0.0 0.00 0.00 0.00 71 1003.9
20260506005841 15 315 0.0 0.0 0.00 0.00 0.00 71 1003.9
20260506005240 15 337 0.0 0.0 0.00 0.00 0.00 71 1004.1
20260506004841 15 337 0.0 0.0 0.00 0.00 0.00 70 1004.2
20260506004540 15 337 0.0 0.0 0.00 0.00 0.00 71 1004.1
20260506003840 15 337 0.0 0.0 0.00 0.00 0.00 70 1004.0
20260506003140 15 135 0.0 0.0 0.00 0.00 0.00 70 1003.9
20260506002841 15 337 0.0 0.0 0.00 0.00 0.00 70 1003.7
20260506002440 15 337 0.0 0.0 0.00 0.00 0.00 70 1003.7
20260506001841 15 337 0.0 0.0 0.00 0.00 0.00 70 1003.7
20260506001740 15 337 0.0 0.0 0.00 0.00 0.00 70 1003.7
20260506001040 15 315 0.0 0.0 0.00 0.00 0.00 70 1003.7
20260506000841 15 337 0.0 0.0 0.00 0.00 0.00 70 1003.7
20260506000340 15 157 0.0 0.0 0.00 0.00 0.00 70 1003.6
20260505235841 16 157 0.0 0.0 0.00 0.00 0.00 69 1003.7
20260505235640 16 157 0.0 0.0 0.00 0.00 0.00 69 1003.7
20260505234940 16 157 0.0 0.0 0.00 0.00 0.00 68 1003.9
20260505234841 16 157 0.0 0.0 0.00 0.00 0.00 68 1003.8
20260505234240 16 157 0.0 0.0 0.00 0.00 0.00 68 1003.9
20260505233841 16 157 0.0 0.0 0.00 0.00 0.00 67 1003.9
20260505233540 16 157 0.0 0.0 0.00 0.00 0.00 67 1004.1
20260505232840 16 180 0.0 0.0 0.00 0.00 0.00 67 1003.9
20260505232140 16 315 0.0 0.0 0.00 0.00 0.00 66 1004.0
20260505231841 16 315 0.0 0.0 0.00 0.00 0.00 66 1003.9
20260505231440 16 315 0.0 0.0 0.00 0.00 0.00 66 1003.9
20260505230841 17 202 0.0 0.0 0.00 0.00 0.00 65 1003.8
20260505230740 17 315 0.0 0.0 0.00 0.00 0.00 65 1003.7
20260505230040 17 315 0.0 0.0 0.00 0.00 0.00 65 1003.7
20260505225841 17 315 0.0 0.0 0.00 0.00 0.00 64 1003.7
20260505225340 17 337 0.0 0.0 0.00 0.00 0.00 64 1003.7
20260505224841 17 337 0.0 0.0 0.00 0.00 0.00 64 1003.8
20260505224640 17 337 0.0 0.0 0.00 0.00 0.00 64 1003.7
20260505223940 17 135 0.0 0.0 0.00 0.00 0.00 65 1003.5
20260505223841 17 135 0.0 0.0 0.00 0.00 0.00 65 1003.6
20260505223240 17 337 0.0 0.0 0.00 0.00 0.00 64 1003.6
20260505222841 17 180 0.0 0.0 0.00 0.00 0.00 63 1003.6
20260505222540 17 337 0.0 0.0 0.00 0.00 0.00 63 1003.6
20260505221840 17 337 0.0 0.0 0.00 0.00 0.00 63 1003.7
20260505221140 17 247 0.0 0.0 0.00 0.00 0.00 63 1003.7
20260505220841 17 157 0.0 0.0 0.00 0.00 0.00 64 1003.8
20260505220440 18 22 0.0 0.0 0.00 0.00 0.00 63 1003.7
20260505215740 18 315 0.0 0.0 0.00 0.00 0.00 62 1003.8
20260505215040 18 337 0.0 0.0 0.00 0.00 0.00 61 1003.7
20260505214841 18 337 0.0 0.0 0.00 0.00 0.00 61 1003.6
20260505214340 18 315 0.0 0.0 0.00 0.00 0.00 60 1003.7
20260505213841 18 202 0.0 0.0 0.00 0.00 0.00 59 1003.9
20260505213640 18 337 0.0 0.0 0.00 0.00 0.00 58 1003.8
20260505212940 18 292 0.0 0.0 0.00 0.00 0.00 57 1003.8
20260505212841 18 315 0.0 0.0 0.00 0.00 0.00 57 1003.8
20260505212240 19 135 0.0 0.0 0.00 0.00 0.00 57 1003.7
20260505211841 19 337 0.0 0.0 0.00 0.00 0.00 55 1003.7
20260505211540 19 202 0.0 0.0 0.00 0.00 0.00 52 1003.7
20260505210840 19 337 0.0 0.0 0.00 0.00 0.00 52 1003.7
20260505210140 19 337 0.0 0.0 0.00 0.00 0.00 48 1003.6
20260505205841 20 337 0.0 0.0 0.00 0.00 0.00 46 1003.7
20260505205440 20 0 0.0 0.0 0.00 0.00 0.00 44 1003.6
20260505204841 20 337 0.0 0.0 0.00 0.00 0.00 41 1003.6
20260505204740 20 337 0.0 0.0 0.00 0.00 0.00 41 1003.5
20260505204040 20 337 0.0 0.0 0.00 0.00 0.00 38 1003.6
20260505203841 20 337 0.0 0.0 0.00 0.00 0.00 38 1003.4
20260505203340 20 337 0.0 0.0 0.00 0.00 0.00 38 1003.4
20260505202640 20 337 0.0 0.0 0.00 0.00 0.00 36 1003.5
20260505201940 20 337 0.0 0.0 0.00 0.00 0.00 35 1003.4